Year,Month,Day,Hour,Minute,Value (Times are PST for temperature in C)
2011,05,01,00,00,7.70
2011,05,01,00,01,7.70
2011,05,01,00,02,7.70
2011,05,01,00,03,7.70
2011,05,01,00,04,7.70
2011,05,01,00,05,7.70
2011,05,01,00,06,7.60
2011,05,01,00,07,7.60
2011,05,01,00,08,7.60
2011,05,01,00,09,7.60
2011,05,01,00,10,7.60
2011,05,01,00,11,7.60
2011,05,01,00,12,7.50
2011,05,01,00,13,7.50
2011,05,01,00,14,7.50
2011,05,01,00,15,7.50
2011,05,01,00,16,7.50
2011,05,01,00,17,7.40
2011,05,01,00,18,7.40
2011,05,01,00,19,7.40
2011,05,01,00,20,7.40
2011,05,01,00,21,7.40
2011,05,01,00,22,7.40
2011,05,01,00,23,7.40
2011,05,01,00,24,7.40
2011,05,01,00,25,7.40
2011,05,01,00,26,7.40
2011,05,01,00,27,7.40
2011,05,01,00,28,7.40
2011,05,01,00,29,7.40
2011,05,01,00,30,7.40
2011,05,01,00,31,7.50
2011,05,01,00,32,7.50
2011,05,01,00,33,7.50
2011,05,01,00,34,7.60
2011,05,01,00,35,7.60
2011,05,01,00,36,7.60
2011,05,01,00,37,7.60
2011,05,01,00,38,7.60
2011,05,01,00,39,7.60
2011,05,01,00,40,7.60
2011,05,01,00,41,7.60
2011,05,01,00,42,7.60
2011,05,01,00,43,7.60
2011,05,01,00,44,7.60
2011,05,01,00,45,7.60
2011,05,01,00,46,7.60
2011,05,01,00,47,7.60
2011,05,01,00,48,7.60
2011,05,01,00,49,7.60
2011,05,01,00,50,7.60
2011,05,01,00,51,7.60
2011,05,01,00,52,7.60
2011,05,01,00,53,7.60
2011,05,01,00,54,7.60
2011,05,01,00,55,7.60
2011,05,01,00,56,7.60
2011,05,01,00,57,7.60
2011,05,01,00,58,7.60
2011,05,01,00,59,7.60
2011,05,01,01,00,7.60
2011,05,01,01,01,7.60
2011,05,01,01,02,7.60
2011,05,01,01,03,7.60
2011,05,01,01,04,7.60
2011,05,01,01,05,7.60
2011,05,01,01,06,7.60
2011,05,01,01,07,7.60
2011,05,01,01,08,7.50
2011,05,01,01,09,7.50
2011,05,01,01,10,7.50
2011,05,01,01,11,7.50
2011,05,01,01,12,7.50
2011,05,01,01,13,7.50
2011,05,01,01,14,7.50
2011,05,01,01,15,7.40
2011,05,01,01,16,7.40
2011,05,01,01,17,7.40
2011,05,01,01,18,7.40
2011,05,01,01,19,7.40
2011,05,01,01,20,7.40
2011,05,01,01,21,7.30
2011,05,01,01,22,7.30
2011,05,01,01,23,7.30
2011,05,01,01,24,7.30
2011,05,01,01,25,7.30
2011,05,01,01,26,7.30
2011,05,01,01,27,7.30
2011,05,01,01,28,7.30
2011,05,01,01,29,7.30
2011,05,01,01,30,7.30
2011,05,01,01,31,7.30
2011,05,01,01,32,7.20
2011,05,01,01,33,7.20
2011,05,01,01,34,7.20
2011,05,01,01,35,7.20
2011,05,01,01,36,7.30
2011,05,01,01,37,7.20
2011,05,01,01,38,7.20
2011,05,01,01,39,7.20
2011,05,01,01,40,7.20
2011,05,01,01,41,7.20
2011,05,01,01,42,7.20
2011,05,01,01,43,7.20
2011,05,01,01,44,7.20
2011,05,01,01,45,7.20
2011,05,01,01,46,7.10
2011,05,01,01,47,7.20
2011,05,01,01,48,7.20
2011,05,01,01,49,7.20
2011,05,01,01,50,7.10
2011,05,01,01,51,7.10
2011,05,01,01,52,7.10
2011,05,01,01,53,7.00
2011,05,01,01,54,7.00
2011,05,01,01,55,7.00
2011,05,01,01,56,6.90
2011,05,01,01,57,6.90
2011,05,01,01,58,6.90
2011,05,01,01,59,6.90
2011,05,01,02,00,6.90
2011,05,01,02,01,6.80
2011,05,01,02,02,6.80
2011,05,01,02,03,6.70
2011,05,01,02,04,6.70
2011,05,01,02,05,6.70
2011,05,01,02,06,6.70
2011,05,01,02,07,6.70
2011,05,01,02,08,6.60
2011,05,01,02,09,6.60
2011,05,01,02,10,6.50
2011,05,01,02,11,6.50
2011,05,01,02,12,6.50
2011,05,01,02,13,6.40
2011,05,01,02,14,6.40
2011,05,01,02,15,6.40
2011,05,01,02,16,6.40
2011,05,01,02,17,6.30
2011,05,01,02,18,6.30
2011,05,01,02,19,6.30
2011,05,01,02,20,6.30
2011,05,01,02,21,6.30
2011,05,01,02,22,6.30
2011,05,01,02,23,6.20
2011,05,01,02,24,6.20
2011,05,01,02,25,6.20
2011,05,01,02,26,6.20
2011,05,01,02,27,6.20
2011,05,01,02,28,6.10
2011,05,01,02,29,6.10
2011,05,01,02,30,6.10
2011,05,01,02,31,6.10
2011,05,01,02,32,6.10
2011,05,01,02,33,6.10
2011,05,01,02,34,6.10
2011,05,01,02,35,6.10
2011,05,01,02,36,6.10
2011,05,01,02,37,6.10
2011,05,01,02,38,6.10
2011,05,01,02,39,6.10
2011,05,01,02,40,6.00
2011,05,01,02,41,6.00
2011,05,01,02,42,6.00
2011,05,01,02,43,5.90
2011,05,01,02,44,5.90
2011,05,01,02,45,5.90
2011,05,01,02,46,5.80
2011,05,01,02,47,5.80
2011,05,01,02,48,5.70
2011,05,01,02,49,5.70
2011,05,01,02,50,5.60
2011,05,01,02,51,5.60
2011,05,01,02,52,5.50
2011,05,01,02,53,5.50
2011,05,01,02,54,5.40
2011,05,01,02,55,5.40
2011,05,01,02,56,5.30
2011,05,01,02,57,5.20
2011,05,01,02,58,5.20
2011,05,01,02,59,5.10
2011,05,01,03,00,5.10
2011,05,01,03,01,5.10
2011,05,01,03,02,5.00
2011,05,01,03,03,5.00
2011,05,01,03,04,4.90
2011,05,01,03,05,4.90
2011,05,01,03,06,4.80
2011,05,01,03,07,4.80
2011,05,01,03,08,4.70
2011,05,01,03,09,4.70
2011,05,01,03,10,4.70
2011,05,01,03,11,4.60
2011,05,01,03,12,4.60
2011,05,01,03,13,4.60
2011,05,01,03,14,4.50
2011,05,01,03,15,4.50
2011,05,01,03,16,4.50
2011,05,01,03,17,4.40
2011,05,01,03,18,4.40
2011,05,01,03,19,4.40
2011,05,01,03,20,4.40
2011,05,01,03,21,4.30
2011,05,01,03,22,4.30
2011,05,01,03,23,4.30
2011,05,01,03,24,4.30
2011,05,01,03,25,4.20
2011,05,01,03,26,4.20
2011,05,01,03,27,4.20
2011,05,01,03,28,4.20
2011,05,01,03,29,4.10
2011,05,01,03,30,4.10
2011,05,01,03,31,4.10
2011,05,01,03,32,4.10
2011,05,01,03,33,4.10
2011,05,01,03,34,4.00
2011,05,01,03,35,4.00
2011,05,01,03,36,4.00
2011,05,01,03,37,3.90
2011,05,01,03,38,3.90
2011,05,01,03,39,3.90
2011,05,01,03,40,3.90
2011,05,01,03,41,3.90
2011,05,01,03,42,3.80
2011,05,01,03,43,3.80
2011,05,01,03,44,3.80
2011,05,01,03,45,3.80
2011,05,01,03,46,3.80
2011,05,01,03,47,3.80
2011,05,01,03,48,3.80
2011,05,01,03,49,3.80
2011,05,01,03,50,3.80
2011,05,01,03,51,3.80
2011,05,01,03,52,3.80
2011,05,01,03,53,3.70
2011,05,01,03,54,3.70
2011,05,01,03,55,3.70
2011,05,01,03,56,3.70
2011,05,01,03,57,3.70
2011,05,01,03,58,3.70
2011,05,01,03,59,3.70
2011,05,01,04,00,3.70
2011,05,01,04,01,3.60
2011,05,01,04,02,3.60
2011,05,01,04,03,3.60
2011,05,01,04,04,3.60
2011,05,01,04,05,3.60
2011,05,01,04,06,3.60
2011,05,01,04,07,3.60
2011,05,01,04,08,3.50
2011,05,01,04,09,3.50
2011,05,01,04,10,3.50
2011,05,01,04,11,3.50
2011,05,01,04,12,3.40
2011,05,01,04,13,3.40
2011,05,01,04,14,3.40
2011,05,01,04,15,3.40
2011,05,01,04,16,3.40
2011,05,01,04,17,3.40
2011,05,01,04,18,3.40
2011,05,01,04,19,3.40
2011,05,01,04,20,3.40
2011,05,01,04,21,3.40
2011,05,01,04,22,3.40
2011,05,01,04,23,3.30
2011,05,01,04,24,3.30
2011,05,01,04,25,3.30
2011,05,01,04,26,3.30
2011,05,01,04,27,3.30
2011,05,01,04,28,3.30
2011,05,01,04,29,3.30
2011,05,01,04,30,3.30
2011,05,01,04,31,3.30
2011,05,01,04,32,3.30
2011,05,01,04,33,3.30
2011,05,01,04,34,3.20
2011,05,01,04,35,3.20
2011,05,01,04,36,3.20
2011,05,01,04,37,3.20
2011,05,01,04,38,3.20
2011,05,01,04,39,3.20
2011,05,01,04,40,3.20
2011,05,01,04,41,3.20
2011,05,01,04,42,3.20
2011,05,01,04,43,3.10
2011,05,01,04,44,3.10
2011,05,01,04,45,3.10
2011,05,01,04,46,3.10
2011,05,01,04,47,3.10
2011,05,01,04,48,3.10
2011,05,01,04,49,3.10
2011,05,01,04,50,3.10
2011,05,01,04,51,3.10
2011,05,01,04,52,3.10
2011,05,01,04,53,3.10
2011,05,01,04,54,3.10
2011,05,01,04,55,3.10
2011,05,01,04,56,3.10
2011,05,01,04,57,3.00
2011,05,01,04,58,3.00
2011,05,01,04,59,3.00
2011,05,01,05,00,3.10
2011,05,01,05,01,3.10
2011,05,01,05,02,3.10
2011,05,01,05,03,3.10
2011,05,01,05,04,3.10
2011,05,01,05,05,3.10
2011,05,01,05,06,3.10
2011,05,01,05,07,3.10
2011,05,01,05,08,3.10
2011,05,01,05,09,3.10
2011,05,01,05,10,3.10
2011,05,01,05,11,3.10
2011,05,01,05,12,3.10
2011,05,01,05,13,3.10
2011,05,01,05,14,3.10
2011,05,01,05,15,3.10
2011,05,01,05,16,3.10
2011,05,01,05,17,3.10
2011,05,01,05,18,3.10
2011,05,01,05,19,3.10
2011,05,01,05,20,3.10
2011,05,01,05,21,3.00
2011,05,01,05,22,3.00
2011,05,01,05,23,3.00
2011,05,01,05,24,3.00
2011,05,01,05,25,3.00
2011,05,01,05,26,3.00
2011,05,01,05,27,2.90
2011,05,01,05,28,2.90
2011,05,01,05,29,2.90
2011,05,01,05,30,2.90
2011,05,01,05,31,2.90
2011,05,01,05,32,2.90
2011,05,01,05,33,2.90
2011,05,01,05,34,2.80
2011,05,01,05,35,2.80
2011,05,01,05,36,2.80
2011,05,01,05,37,2.80
2011,05,01,05,38,2.80
2011,05,01,05,39,2.80
2011,05,01,05,40,2.80
2011,05,01,05,41,2.70
2011,05,01,05,42,2.70
2011,05,01,05,43,2.70
2011,05,01,05,44,2.70
2011,05,01,05,45,2.70
2011,05,01,05,46,2.70
2011,05,01,05,47,2.70
2011,05,01,05,48,2.70
2011,05,01,05,49,2.60
2011,05,01,05,50,2.60
2011,05,01,05,51,2.60
2011,05,01,05,52,2.60
2011,05,01,05,53,2.60
2011,05,01,05,54,2.60
2011,05,01,05,55,2.60
2011,05,01,05,56,2.60
2011,05,01,05,57,2.60
2011,05,01,05,58,2.60
2011,05,01,05,59,2.60
2011,05,01,06,00,2.60
2011,05,01,06,01,2.60
2011,05,01,06,02,2.60
2011,05,01,06,03,2.60
2011,05,01,06,04,2.60
2011,05,01,06,05,2.60
2011,05,01,06,06,2.50
2011,05,01,06,07,2.50
2011,05,01,06,08,2.50
2011,05,01,06,09,2.50
2011,05,01,06,10,2.50
2011,05,01,06,11,2.40
2011,05,01,06,12,2.40
2011,05,01,06,13,2.40
2011,05,01,06,14,2.40
2011,05,01,06,15,2.40
2011,05,01,06,16,2.40
2011,05,01,06,17,2.40
2011,05,01,06,18,2.40
2011,05,01,06,19,2.40
2011,05,01,06,20,2.40
2011,05,01,06,21,2.40
2011,05,01,06,22,2.40
2011,05,01,06,23,2.40
2011,05,01,06,24,2.40
2011,05,01,06,25,2.40
2011,05,01,06,26,2.40
2011,05,01,06,27,2.40
2011,05,01,06,28,2.40
2011,05,01,06,29,2.40
2011,05,01,06,30,2.50
2011,05,01,06,31,2.50
2011,05,01,06,32,2.50
2011,05,01,06,33,2.60
2011,05,01,06,34,2.60
2011,05,01,06,35,2.60
2011,05,01,06,36,2.60
2011,05,01,06,37,2.60
2011,05,01,06,38,2.60
2011,05,01,06,39,2.60
2011,05,01,06,40,2.60
2011,05,01,06,41,2.60
2011,05,01,06,42,2.60
2011,05,01,06,43,2.60
2011,05,01,06,44,2.60
2011,05,01,06,45,2.70
2011,05,01,06,46,2.70
2011,05,01,06,47,2.70
2011,05,01,06,48,2.70
2011,05,01,06,49,2.80
2011,05,01,06,50,2.80
2011,05,01,06,51,2.80
2011,05,01,06,52,2.90
2011,05,01,06,53,2.90
2011,05,01,06,54,2.90
2011,05,01,06,55,3.00
2011,05,01,06,56,3.00
2011,05,01,06,57,3.10
2011,05,01,06,58,3.10
2011,05,01,06,59,3.10
2011,05,01,07,00,3.20
2011,05,01,07,01,3.20
2011,05,01,07,02,3.20
2011,05,01,07,03,3.20
2011,05,01,07,04,3.20
2011,05,01,07,05,3.20
2011,05,01,07,06,3.20
2011,05,01,07,07,3.30
2011,05,01,07,08,3.30
2011,05,01,07,09,3.30
2011,05,01,07,10,3.30
2011,05,01,07,11,3.30
2011,05,01,07,12,3.40
2011,05,01,07,13,3.40
2011,05,01,07,14,3.40
2011,05,01,07,15,3.50
2011,05,01,07,16,3.50
2011,05,01,07,17,3.50
2011,05,01,07,18,3.50
2011,05,01,07,19,3.60
2011,05,01,07,20,3.60
2011,05,01,07,21,3.60
2011,05,01,07,22,3.60
2011,05,01,07,23,3.60
2011,05,01,07,24,3.70
2011,05,01,07,25,3.70
2011,05,01,07,26,3.80
2011,05,01,07,27,3.80
2011,05,01,07,28,3.80
2011,05,01,07,29,3.80
2011,05,01,07,30,3.90
2011,05,01,07,31,3.90
2011,05,01,07,32,4.00
2011,05,01,07,33,4.00
2011,05,01,07,34,4.00
2011,05,01,07,35,4.10
2011,05,01,07,36,4.10
2011,05,01,07,37,4.10
2011,05,01,07,38,4.10
2011,05,01,07,39,4.20
2011,05,01,07,40,4.20
2011,05,01,07,41,4.30
2011,05,01,07,42,4.40
2011,05,01,07,43,4.50
2011,05,01,07,44,4.60
2011,05,01,07,45,4.70
2011,05,01,07,46,4.70
2011,05,01,07,47,4.80
2011,05,01,07,48,4.90
2011,05,01,07,49,4.90
2011,05,01,07,50,4.90
2011,05,01,07,51,5.00
2011,05,01,07,52,5.00
2011,05,01,07,53,5.10
2011,05,01,07,54,5.10
2011,05,01,07,55,5.10
2011,05,01,07,56,5.10
2011,05,01,07,57,5.20
2011,05,01,07,58,5.20
2011,05,01,07,59,5.20
2011,05,01,08,00,5.30
2011,05,01,08,01,5.30
2011,05,01,08,02,5.40
2011,05,01,08,03,5.40
2011,05,01,08,04,5.50
2011,05,01,08,05,5.50
2011,05,01,08,06,5.60
2011,05,01,08,07,5.60
2011,05,01,08,08,5.70
2011,05,01,08,09,5.80
2011,05,01,08,10,5.80
2011,05,01,08,11,5.90
2011,05,01,08,12,6.00
2011,05,01,08,13,6.10
2011,05,01,08,14,6.20
2011,05,01,08,15,6.30
2011,05,01,08,16,6.30
2011,05,01,08,17,6.40
2011,05,01,08,18,6.50
2011,05,01,08,19,6.50
2011,05,01,08,20,6.60
2011,05,01,08,21,6.70
2011,05,01,08,22,6.80
2011,05,01,08,23,6.80
2011,05,01,08,24,6.90
2011,05,01,08,25,7.00
2011,05,01,08,26,7.00
2011,05,01,08,27,7.10
2011,05,01,08,28,7.20
2011,05,01,08,29,7.20
2011,05,01,08,30,7.20
2011,05,01,08,31,7.30
2011,05,01,08,32,7.30
2011,05,01,08,33,7.40
2011,05,01,08,34,7.40
2011,05,01,08,35,7.50
2011,05,01,08,36,7.60
2011,05,01,08,37,7.70
2011,05,01,08,38,7.80
2011,05,01,08,39,7.80
2011,05,01,08,40,7.90
2011,05,01,08,41,7.90
2011,05,01,08,42,8.00
2011,05,01,08,43,8.00
2011,05,01,08,44,8.10
2011,05,01,08,45,8.20
2011,05,01,08,46,8.20
2011,05,01,08,47,8.30
2011,05,01,08,48,8.30
2011,05,01,08,49,8.30
2011,05,01,08,50,8.40
2011,05,01,08,51,8.40
2011,05,01,08,52,8.50
2011,05,01,08,53,8.60
2011,05,01,08,54,8.60
2011,05,01,08,55,8.70
2011,05,01,08,56,8.70
2011,05,01,08,57,8.80
2011,05,01,08,58,8.90
2011,05,01,08,59,9.00
2011,05,01,09,00,9.10
2011,05,01,09,01,9.20
2011,05,01,09,02,9.20
2011,05,01,09,03,9.30
2011,05,01,09,04,9.40
2011,05,01,09,05,9.50
2011,05,01,09,06,9.60
2011,05,01,09,07,9.60
2011,05,01,09,08,9.70
2011,05,01,09,09,9.80
2011,05,01,09,10,9.80
2011,05,01,09,11,9.90
2011,05,01,09,12,10.00
2011,05,01,09,13,10.00
2011,05,01,09,14,10.10
2011,05,01,09,15,10.10
2011,05,01,09,16,10.10
2011,05,01,09,17,10.20
2011,05,01,09,18,10.20
2011,05,01,09,19,10.30
2011,05,01,09,20,10.30
2011,05,01,09,21,10.40
2011,05,01,09,22,10.50
2011,05,01,09,23,10.60
2011,05,01,09,24,10.70
2011,05,01,09,25,10.70
2011,05,01,09,26,10.80
2011,05,01,09,27,10.80
2011,05,01,09,28,10.80
2011,05,01,09,29,10.90
2011,05,01,09,30,11.00
2011,05,01,09,31,11.00
2011,05,01,09,32,11.10
2011,05,01,09,33,11.10
2011,05,01,09,34,11.10
2011,05,01,09,35,11.10
2011,05,01,09,36,11.10
2011,05,01,09,37,11.20
2011,05,01,09,38,11.20
2011,05,01,09,39,11.20
2011,05,01,09,40,11.30
2011,05,01,09,41,11.30
2011,05,01,09,42,11.40
2011,05,01,09,43,11.40
2011,05,01,09,44,11.40
2011,05,01,09,45,11.50
2011,05,01,09,46,11.50
2011,05,01,09,47,11.50
2011,05,01,09,48,11.50
2011,05,01,09,49,11.60
2011,05,01,09,50,11.60
2011,05,01,09,51,11.60
2011,05,01,09,52,11.60
2011,05,01,09,53,11.60
2011,05,01,09,54,11.70
2011,05,01,09,55,11.70
2011,05,01,09,56,11.80
2011,05,01,09,57,11.80
2011,05,01,09,58,11.80
2011,05,01,09,59,11.80
2011,05,01,10,00,11.80
2011,05,01,10,01,11.80
2011,05,01,10,02,11.80
2011,05,01,10,03,11.90
2011,05,01,10,04,11.90
2011,05,01,10,05,11.80
2011,05,01,10,06,11.80
2011,05,01,10,07,11.90
2011,05,01,10,08,11.90
2011,05,01,10,09,11.90
2011,05,01,10,10,11.90
2011,05,01,10,11,11.90
2011,05,01,10,12,11.90
2011,05,01,10,13,12.00
2011,05,01,10,14,12.00
2011,05,01,10,15,12.00
2011,05,01,10,16,11.90
2011,05,01,10,17,11.80
2011,05,01,10,18,11.80
2011,05,01,10,19,11.80
2011,05,01,10,20,11.80
2011,05,01,10,21,11.80
2011,05,01,10,22,11.80
2011,05,01,10,23,11.80
2011,05,01,10,24,11.80
2011,05,01,10,25,11.70
2011,05,01,10,26,11.70
2011,05,01,10,27,11.70
2011,05,01,10,28,11.70
2011,05,01,10,29,11.70
2011,05,01,10,30,11.60
2011,05,01,10,31,11.70
2011,05,01,10,32,11.70
2011,05,01,10,33,11.60
2011,05,01,10,34,11.60
2011,05,01,10,35,11.50
2011,05,01,10,36,11.40
2011,05,01,10,37,11.50
2011,05,01,10,38,11.50
2011,05,01,10,39,11.50
2011,05,01,10,40,11.40
2011,05,01,10,41,11.50
2011,05,01,10,42,11.50
2011,05,01,10,43,11.60
2011,05,01,10,44,11.60
2011,05,01,10,45,11.60
2011,05,01,10,46,11.60
2011,05,01,10,47,11.70
2011,05,01,10,48,11.70
2011,05,01,10,49,11.70
2011,05,01,10,50,11.70
2011,05,01,10,51,11.60
2011,05,01,10,52,11.60
2011,05,01,10,53,11.50
2011,05,01,10,54,11.60
2011,05,01,10,55,11.50
2011,05,01,10,56,11.60
2011,05,01,10,57,11.60
2011,05,01,10,58,11.60
2011,05,01,10,59,11.70
2011,05,01,11,00,11.80
2011,05,01,11,01,11.90
2011,05,01,11,02,12.00
2011,05,01,11,03,11.90
2011,05,01,11,04,11.90
2011,05,01,11,05,11.90
2011,05,01,11,06,12.00
2011,05,01,11,07,12.00
2011,05,01,11,08,12.00
2011,05,01,11,09,12.00
2011,05,01,11,10,11.90
2011,05,01,11,11,11.90
2011,05,01,11,12,11.80
2011,05,01,11,13,11.70
2011,05,01,11,14,11.60
2011,05,01,11,15,11.60
2011,05,01,11,16,11.50
2011,05,01,11,17,11.50
2011,05,01,11,18,11.50
2011,05,01,11,19,11.60
2011,05,01,11,20,11.60
2011,05,01,11,21,11.70
2011,05,01,11,22,11.70
2011,05,01,11,23,11.80
2011,05,01,11,24,11.80
2011,05,01,11,25,11.90
2011,05,01,11,26,11.90
2011,05,01,11,27,11.90
2011,05,01,11,28,11.90
2011,05,01,11,29,11.90
2011,05,01,11,30,11.90
2011,05,01,11,31,11.90
2011,05,01,11,32,11.80
2011,05,01,11,33,11.70
2011,05,01,11,34,11.60
2011,05,01,11,35,11.60
2011,05,01,11,36,11.60
2011,05,01,11,37,11.50
2011,05,01,11,38,11.40
2011,05,01,11,39,11.40
2011,05,01,11,40,11.40
2011,05,01,11,41,11.40
2011,05,01,11,42,11.40
2011,05,01,11,43,11.40
2011,05,01,11,44,11.40
2011,05,01,11,45,11.40
2011,05,01,11,46,11.40
2011,05,01,11,47,11.50
2011,05,01,11,48,11.60
2011,05,01,11,49,11.60
2011,05,01,11,50,11.60
2011,05,01,11,51,11.60
2011,05,01,11,52,11.70
2011,05,01,11,53,11.70
2011,05,01,11,54,11.60
2011,05,01,11,55,11.50
2011,05,01,11,56,11.50
2011,05,01,11,57,11.40
2011,05,01,11,58,11.40
2011,05,01,11,59,11.40
2011,05,01,12,00,11.30
2011,05,01,12,01,11.30
2011,05,01,12,02,11.20
2011,05,01,12,03,11.20
2011,05,01,12,04,11.20
2011,05,01,12,05,11.20
2011,05,01,12,06,11.10
2011,05,01,12,07,11.10
2011,05,01,12,08,11.00
2011,05,01,12,09,11.00
2011,05,01,12,10,11.10
2011,05,01,12,11,11.10
2011,05,01,12,12,11.00
2011,05,01,12,13,11.00
2011,05,01,12,14,11.10
2011,05,01,12,15,11.10
2011,05,01,12,16,11.10
2011,05,01,12,17,11.10
2011,05,01,12,18,11.10
2011,05,01,12,19,11.10
2011,05,01,12,20,11.20
2011,05,01,12,21,11.20
2011,05,01,12,22,11.30
2011,05,01,12,23,11.30
2011,05,01,12,24,11.30
2011,05,01,12,25,11.30
2011,05,01,12,26,11.30
2011,05,01,12,27,11.30
2011,05,01,12,28,11.20
2011,05,01,12,29,11.20
2011,05,01,12,30,11.30
2011,05,01,12,31,11.30
2011,05,01,12,32,11.30
2011,05,01,12,33,11.40
2011,05,01,12,34,11.40
2011,05,01,12,35,11.40
2011,05,01,12,36,11.40
2011,05,01,12,37,11.40
2011,05,01,12,38,11.40
2011,05,01,12,39,11.40
2011,05,01,12,40,11.30
2011,05,01,12,41,11.20
2011,05,01,12,42,11.20
2011,05,01,12,43,11.20
2011,05,01,12,44,11.30
2011,05,01,12,45,11.30
2011,05,01,12,46,11.30
2011,05,01,12,47,11.40
2011,05,01,12,48,11.60
2011,05,01,12,49,11.70
2011,05,01,12,50,11.70
2011,05,01,12,51,11.70
2011,05,01,12,52,11.70
2011,05,01,12,53,11.60
2011,05,01,12,54,11.60
2011,05,01,12,55,11.60
2011,05,01,12,56,11.70
2011,05,01,12,57,11.80
2011,05,01,12,58,11.80
2011,05,01,12,59,11.80
2011,05,01,13,00,11.70
2011,05,01,13,01,11.70
2011,05,01,13,02,11.70
2011,05,01,13,03,11.70
2011,05,01,13,04,11.70
2011,05,01,13,05,11.70
2011,05,01,13,06,11.70
2011,05,01,13,07,11.70
2011,05,01,13,08,11.70
2011,05,01,13,09,11.60
2011,05,01,13,10,11.60
2011,05,01,13,11,11.60
2011,05,01,13,12,11.60
2011,05,01,13,13,11.60
2011,05,01,13,14,11.50
2011,05,01,13,15,11.50
2011,05,01,13,16,11.50
2011,05,01,13,17,11.50
2011,05,01,13,18,11.50
2011,05,01,13,19,11.60
2011,05,01,13,20,11.60
2011,05,01,13,21,11.60
2011,05,01,13,22,11.70
2011,05,01,13,23,11.70
2011,05,01,13,24,11.80
2011,05,01,13,25,11.80
2011,05,01,13,26,11.80
2011,05,01,13,27,11.80
2011,05,01,13,28,11.80
2011,05,01,13,29,11.80
2011,05,01,13,30,11.80
2011,05,01,13,31,11.90
2011,05,01,13,32,11.90
2011,05,01,13,33,11.90
2011,05,01,13,34,11.90
2011,05,01,13,35,11.90
2011,05,01,13,36,11.80
2011,05,01,13,37,11.80
2011,05,01,13,38,11.80
2011,05,01,13,39,11.80
2011,05,01,13,40,11.80
2011,05,01,13,41,11.90
2011,05,01,13,42,12.00
2011,05,01,13,43,12.10
2011,05,01,13,44,12.20
2011,05,01,13,45,12.20
2011,05,01,13,46,12.30
2011,05,01,13,47,12.30
2011,05,01,13,48,12.40
2011,05,01,13,49,12.40
2011,05,01,13,50,12.40
2011,05,01,13,51,12.40
2011,05,01,13,52,12.50
2011,05,01,13,53,12.50
2011,05,01,13,54,12.50
2011,05,01,13,55,12.50
2011,05,01,13,56,12.60
2011,05,01,13,57,12.50
2011,05,01,13,58,12.50
2011,05,01,13,59,12.50
2011,05,01,14,00,12.60
2011,05,01,14,01,12.70
2011,05,01,14,02,12.80
2011,05,01,14,03,12.90
2011,05,01,14,04,13.00
2011,05,01,14,05,13.10
2011,05,01,14,06,13.20
2011,05,01,14,07,13.20
2011,05,01,14,08,13.20
2011,05,01,14,09,13.10
2011,05,01,14,10,13.00
2011,05,01,14,11,12.90
2011,05,01,14,12,12.80
2011,05,01,14,13,12.90
2011,05,01,14,14,12.90
2011,05,01,14,15,12.90
2011,05,01,14,16,12.90
2011,05,01,14,17,12.90
2011,05,01,14,18,12.80
2011,05,01,14,19,12.80
2011,05,01,14,20,12.80
2011,05,01,14,21,12.90
2011,05,01,14,22,13.00
2011,05,01,14,23,13.10
2011,05,01,14,24,13.20
2011,05,01,14,25,13.30
2011,05,01,14,26,13.40
2011,05,01,14,27,13.40
2011,05,01,14,28,13.40
2011,05,01,14,29,13.50
2011,05,01,14,30,13.50
2011,05,01,14,31,13.50
2011,05,01,14,32,13.60
2011,05,01,14,33,13.60
2011,05,01,14,34,13.60
2011,05,01,14,35,13.60
2011,05,01,14,36,13.60
2011,05,01,14,37,13.60
2011,05,01,14,38,13.60
2011,05,01,14,39,13.70
2011,05,01,14,40,13.80
2011,05,01,14,41,13.80
2011,05,01,14,42,14.00
2011,05,01,14,43,14.10
2011,05,01,14,44,14.10
2011,05,01,14,45,14.10
2011,05,01,14,46,14.10
2011,05,01,14,47,14.00
2011,05,01,14,48,14.00
2011,05,01,14,49,14.10
2011,05,01,14,50,14.10
2011,05,01,14,51,14.10
2011,05,01,14,52,14.00
2011,05,01,14,53,13.90
2011,05,01,14,54,13.90
2011,05,01,14,55,13.90
2011,05,01,14,56,13.90
2011,05,01,14,57,13.90
2011,05,01,14,58,13.80
2011,05,01,14,59,13.80
2011,05,01,15,00,13.70
2011,05,01,15,01,13.70
2011,05,01,15,02,13.70
2011,05,01,15,03,13.80
2011,05,01,15,04,13.90
2011,05,01,15,05,14.10
2011,05,01,15,06,14.30
2011,05,01,15,07,14.30
2011,05,01,15,08,14.30
2011,05,01,15,09,14.30
2011,05,01,15,10,14.30
2011,05,01,15,11,14.20
2011,05,01,15,12,14.10
2011,05,01,15,13,13.90
2011,05,01,15,14,13.80
2011,05,01,15,15,13.80
2011,05,01,15,16,13.80
2011,05,01,15,17,13.80
2011,05,01,15,18,13.80
2011,05,01,15,19,13.90
2011,05,01,15,20,13.90
2011,05,01,15,21,14.00
2011,05,01,15,22,14.20
2011,05,01,15,23,14.30
2011,05,01,15,24,14.30
2011,05,01,15,25,14.40
2011,05,01,15,26,14.50
2011,05,01,15,27,14.70
2011,05,01,15,28,14.70
2011,05,01,15,29,14.80
2011,05,01,15,30,14.70
2011,05,01,15,31,14.60
2011,05,01,15,32,14.60
2011,05,01,15,33,14.60
2011,05,01,15,34,14.60
2011,05,01,15,35,14.60
2011,05,01,15,36,14.60
2011,05,01,15,37,14.60
2011,05,01,15,38,14.50
2011,05,01,15,39,14.30
2011,05,01,15,40,14.30
2011,05,01,15,41,14.40
2011,05,01,15,42,14.40
2011,05,01,15,43,14.40
2011,05,01,15,44,14.40
2011,05,01,15,45,14.40
2011,05,01,15,46,14.50
2011,05,01,15,47,14.50
2011,05,01,15,48,14.60
2011,05,01,15,49,14.70
2011,05,01,15,50,14.80
2011,05,01,15,51,14.90
2011,05,01,15,52,15.00
2011,05,01,15,53,15.00
2011,05,01,15,54,15.00
2011,05,01,15,55,14.90
2011,05,01,15,56,14.80
2011,05,01,15,57,14.80
2011,05,01,15,58,14.70
2011,05,01,15,59,14.70
2011,05,01,16,00,14.60
2011,05,01,16,01,14.60
2011,05,01,16,02,14.70
2011,05,01,16,03,14.60
2011,05,01,16,04,14.60
2011,05,01,16,05,14.60
2011,05,01,16,06,14.60
2011,05,01,16,07,14.60
2011,05,01,16,08,14.60
2011,05,01,16,09,14.60
2011,05,01,16,10,14.70
2011,05,01,16,11,14.70
2011,05,01,16,12,14.80
2011,05,01,16,13,14.80
2011,05,01,16,14,14.90
2011,05,01,16,15,15.00
2011,05,01,16,16,15.00
2011,05,01,16,17,15.00
2011,05,01,16,18,15.00
2011,05,01,16,19,15.00
2011,05,01,16,20,15.00
2011,05,01,16,21,14.90
2011,05,01,16,22,14.80
2011,05,01,16,23,14.60
2011,05,01,16,24,14.60
2011,05,01,16,25,14.60
2011,05,01,16,26,14.60
2011,05,01,16,27,14.70
2011,05,01,16,28,14.60
2011,05,01,16,29,14.70
2011,05,01,16,30,14.70
2011,05,01,16,31,14.90
2011,05,01,16,32,15.00
2011,05,01,16,33,15.00
2011,05,01,16,34,15.00
2011,05,01,16,35,15.00
2011,05,01,16,36,15.00
2011,05,01,16,37,15.00
2011,05,01,16,38,15.00
2011,05,01,16,39,15.00
2011,05,01,16,40,15.00
2011,05,01,16,41,15.00
2011,05,01,16,42,15.00
2011,05,01,16,43,15.00
2011,05,01,16,44,15.00
2011,05,01,16,45,15.00
2011,05,01,16,46,15.00
2011,05,01,16,47,14.80
2011,05,01,16,48,14.60
2011,05,01,16,49,14.50
2011,05,01,16,50,14.40
2011,05,01,16,51,14.40
2011,05,01,16,52,14.40
2011,05,01,16,53,14.40
2011,05,01,16,54,14.50
2011,05,01,16,55,14.60
2011,05,01,16,56,14.60
2011,05,01,16,57,14.70
2011,05,01,16,58,14.70
2011,05,01,16,59,14.70
2011,05,01,17,00,14.80
2011,05,01,17,01,14.80
2011,05,01,17,02,14.80
2011,05,01,17,03,14.70
2011,05,01,17,04,14.70
2011,05,01,17,05,14.70
2011,05,01,17,06,14.70
2011,05,01,17,07,14.70
2011,05,01,17,08,14.60
2011,05,01,17,09,14.60
2011,05,01,17,10,14.70
2011,05,01,17,11,14.60
2011,05,01,17,12,14.60
2011,05,01,17,13,14.60
2011,05,01,17,14,14.50
2011,05,01,17,15,14.50
2011,05,01,17,16,14.50
2011,05,01,17,17,14.50
2011,05,01,17,18,14.60
2011,05,01,17,19,14.60
2011,05,01,17,20,14.70
2011,05,01,17,21,14.80
2011,05,01,17,22,14.80
2011,05,01,17,23,14.90
2011,05,01,17,24,15.00
2011,05,01,17,25,15.00
2011,05,01,17,26,15.10
2011,05,01,17,27,15.00
2011,05,01,17,28,15.00
2011,05,01,17,29,15.10
2011,05,01,17,30,15.10
2011,05,01,17,31,15.10
2011,05,01,17,32,15.10
2011,05,01,17,33,15.00
2011,05,01,17,34,15.00
2011,05,01,17,35,15.10
2011,05,01,17,36,15.10
2011,05,01,17,37,15.10
2011,05,01,17,38,15.10
2011,05,01,17,39,15.00
2011,05,01,17,40,15.00
2011,05,01,17,41,15.00
2011,05,01,17,42,15.00
2011,05,01,17,43,15.00